[ hide orbit diagram ]
For accurate long-term ephemerides, please instead use our Horizons system.This orbit viewer was implemented using two-body methods, and hence should not be used for determining accurate long-term trajectories (over several years or decades) or planetary encounter circumstances.
Orbital Elements at Epoch 2459200.5 (2020-Dec-17.0) TDB
Reference: JPL 12 (heliocentric ecliptic J2000)
Element | Value | Uncertainty (1-sigma) | Units |
e | .1782559744795858 | 4.5574e-08 | |
a | 2.379895847526539 | 1.7149e-08 | au |
q | 1.955665194065776 | 1.0958e-07 | au |
i | 2.420468783782899 | 4.9625e-06 | deg |
node | 75.25154075916937 | 0.00014093 | deg |
peri | 224.6714618114707 | 0.00014192 | deg |
M | 269.9515782533201 | 1.8462e-05 | deg |
tp | 2459535.935449974688 (2021-Nov-17.43544997) | 7.077e-05 | TDB |
period | 1341.020304948766 3.67 | 1.4495e-05 3.969e-08 | d yr |
n | .2684523110287684 | 2.9016e-09 | deg/d |
Q | 2.804126500987302 | 2.0206e-08 | au |
|
| | Orbit Determination Parameters
Additional Information
|
[ show covariance matrix ]
Physical Parameter Table
Parameter |
Symbol |
Value |
Units |
Sigma |
Reference |
Notes |
absolute magnitude |
H |
17.5 |
|
n/a |
MPO533742 |
|
|
243125 (2007 RT244) Discovered 2007-Sep-11 by Spacewatch at Kitt Peak |
Reference: 20100626/Numbers.arc | Last Updated: 2010-06-28 |
|
[ show close-approach data ]
|